Location: Hawks Ness
(60.2333°N, 1.1667°W)
Time: 04:16:45
(UTC+00:00)

Cosmos 389 Rocket - Pass Details

Date: 22 October 2019
Orbit: 445 x 477 km, 81.1° (Epoch: 16 November)

Event Time Altitude Azimuth Distance (km) Brightness Sun altitude
Exits shadow 05:53:49 10° 252° (WSW) 1,569 4.6 -8.9°
Maximum altitude 05:56:29 21° 304° (WNW) 1,073 3.8 -8.6°
Drops below altitude 10° 05:59:15 10° 355° (N) 1,608 5.1 -8.3°
Sets 06:01:42 0° 12° (NNE) 2,493 6.2 -8.0°
